www.pogodaiklimat.ru

Погода и климат >> Архив погоды >> Россия >> Камчатский край >> Большерецк


ПОГОДА в Большерецке

  • Прогноз погоды в Большерецке
  • Монитор погоды в Большерецке

АРХИВ ПОГОДЫ в Большерецке

Время (UTC), дата Ветер
(напр.,м/с)
 
Видим.   Явления Облачность Т
(С)
Тd
(С)
f
(%)
Тe
(С)
Тes
(С)
Комфортность P
(гПа)
Po
(гПа)
Тmin
(С)
Tmax
(С)
R
(мм)
R24
(мм)
S
(см)
18 14.05 С 10-15
{16}
10 км слаб. морось 10/10 300 м
[St]
+1.8 +0.9 94 -6 -6 1007.7 1004.0
21 14.05 СЗ 13-13
{20}
н/о {морось} н/о +3.7 +0.8 81 -4 -4 1007.8 1004.0 +1.6 0.0
00 15.05 СЗ 14-15
{22}
20 км {морось} 9/6 600 м
[Sc Ac trans]
+5.9 +1.7 74 -1 -1 1007.1 1003.4
03 15.05 СЗ 13-14
{22}
50 км 10/3 600 м
[Sc Ci fib]
+6.9 +2.0 71 +1 +1 1007.3 1003.6
06 15.05 СЗ 10-11
{21}
50 км 3/3 600 м
[Sc]
+7.2 +1.9 69 +2 +2 1008.2 1004.6
09 15.05 СЗ 7-10
{17}
20 км 3/3 600 м
[Sc]
+3.2 +0.7 84 -3 -3 1010.4 1006.7 +7.3 0.0
12 15.05 С 5-10
{11}
20 км 3/3 600 м
[Sc]
+1.6 +0.7 94 -4 -4 1012.6 1008.8
15 15.05 С 2
{10}
20 км 4/4 600 м
[Sc]
-0.2 -0.2 100 -4 -4 1014.1 1010.3
18 15.05 З 1 20 км 10/4 600 м
[Sc Ac und]
-0.8 -0.8 100 -3 -3 1015.8 1012.0
21 15.05 Ю 3 500 м туман ?/? +3.3 +3.2 99 -1 -1 1017.4 1013.7 -1.6
00 16.05 Ю 3 50 км в посл. час туман 8/4 600 м
[Sc Ci fib]
+9.1 +3.6 68 +7 +13 1018.5 1014.8
03 16.05 ЮЗ 3 50 км 8/3 600 м
[Cu hum Ci fib]
+9.8 +3.1 63 +8 +15 1019.4 1015.7
06 16.05 ЮЗ 2 50 км 6/6 600 м
[Cu Sc]
+8.9 +0.8 57 +8 +10 1020.5 1016.8
09 16.05 ЮЗ 2 50 км 6/4 600 м
[Sc Ac trans]
+4.3 +1.8 84 +2 +2 1021.7 1017.9 +10.0
12 16.05 Ю 2 20 км 8/3 300 м
[St Ac trans]
+0.9 +0.9 100 -3 -3 1023.3 1019.5
15 16.05 ЮЗ 4 200 м туман ?/? +1.1 +1.1 100 -4 -4 1024.1 1020.3
18 16.05 Ю 3 200 м туман ?/? +0.8 +0.8 100 -4 -4 1025.0 1021.2
21 16.05 Ю 3 200 м туман ?/? +1.6 +1.6 100 -3 -3 1025.7 1021.9 +0.6
00 17.05 ЮЗ 3 50 км {туман} 3/3 300 м
[St]
+5.7 +1.2 73 +3 +11 опасность
простуды
1025.8 1022.1
03 17.05 ЮЗ 4 50 км 3/3 600 м
[Cu hum]
+5.7 +1.3 73 +2 +9 1025.4 1021.6
06 17.05 ЮЗ 4 50 км 3/3 300 м
[St]
+3.7 +1.0 83 -1 +2 1025.4 1021.6
09 17.05 ЮЗ 2 500 м туман ?/? +0.7 +0.7 100 -3 -3 1027.0 1023.2 +6.4
12 17.05 Ю 3 200 м туман ?/? +0.1 +0.1 100 -5 -5 1027.3 1023.4
15 17.05 Ю 2 200 м туман ?/? -0.1 -0.1 100 -4 -4 1027.6 1023.7
18 17.05 Ю 2 200 м слаб. морось {туман} туман ?/? -0.4 -0.4 100 -4 -4 1027.6 1023.7
21 17.05 Ю 2 500 м туман ?/? +0.7 +0.7 100 -3 -3 1027.1 1023.3 -0.6 0.0
00 18.05 ЮЗ 3 50 км {морось, туман} 10/4 600 м
[Sc Ac und]
+4.6 +0.9 77 +1 +3 1026.2 1022.5
03 18.05 ЮЗ 3 50 км 10/3 600 м
[Sc Ci fib]
+7.4 +2.1 69 +5 +11 1025.2 1021.5
06 18.05 ЮЗ 4 50 км 9/9 600 м
[Sc]
+3.6 +1.5 86 -1 -1 1024.6 1020.9
09 18.05 Ю 4 20 км 10/10 600 м
[Sc]
+1.1 +0.2 94 -4 -4 1023.7 1019.9 +7.4
12 18.05 ЮВ 4 500 м туман ?/? +1.6 +1.6 100 -4 -4 1023.2 1019.4
15 18.05 ЮВ 5 н/о {туман} н/о +2.5 +2.5 100 -3 -3 1021.0 1017.2
18 18.05 ЮВ 4 500 м туман ?/? +4.3 +4.3 100 -0 -0 1018.9 1015.2
21 18.05 ЮВ 4 20 км слаб. ливневой дождь {туман} 10/8 600 м
[Cb cap Ac und]
+7.4 +6.3 93 +4 +4 1016.3 1012.6 +1.1 0.6
00 19.05 Ю 7-11
{12}
20 км слаб. ливневой дождь {туман} 10/6 600 м
[Cb cap Ac und]
+11.0 +7.7 80 +8 +8 1012.4 1008.8
03 19.05 Ю 10-18
{22}
20 км {ливн. осадки} 10/10 600 м
[Cb cap]
+8.8 +6.8 87 +4 +4 1010.4 1006.8
06 19.05 Ю 8-16
{18}
20 км {ливн. осадки} 10/10 600 м
[Cb cap]
+5.2 +4.6 96 -1 -1 1009.2 1005.5
09 19.05 Ю 4-10
{16}
10 км слаб. ливневой дождь 10/10 300 м
[Cb cap]
+4.1 +4.1 100 -1 -1 1009.9 1006.2 +12.5 6
12 19.05 Ю 4
{12}
200 м туман {ливн. осадки} ?/? +3.4 +3.4 100 -2 -2 1010.6 1006.9
15 19.05 Ю 5 200 м туман ?/? +3.1 +3.1 100 -2 -2 1009.8 1006.1
18 19.05 Ю 6-10
{10}
200 м туман ?/? +3.1 +3.1 100 -3 -3 1008.3 1004.6
21 19.05 Ю 6-10
{11}
200 м слаб. морось туман ?/? +3.8 +3.8 100 -2 -2 1008.9 1005.2 +3.0 0.4
00 20.05 ЮЗ 3
{10}
20 км в посл. час туман {ливн. осадки} 9/9 300 м
[St]
+6.3 +5.0 91 +3 +4 1009.8 1006.1
03 20.05 ЮЗ 3 50 км 3/3 300 м
[St]
+9.3 +3.8 68 +7 +16 опасность
простуды
1010.9 1007.2
06 20.05 ЮЗ 5 50 км 3/3 600 м
[Cu hum]
+7.8 +2.8 71 +4 +6 1011.7 1008.1
09 20.05 ЮЗ 2 50 км 6/3 600 м
[Sc Ac cast]
+4.9 +2.5 84 +2 +2 1012.7 1009.0 +9.5 0.0
12 20.05 Ю 2 20 км 6/0
[Ac cast Ci fib]
+3.0 +3.0 100 -0 -0 1013.1 1009.4
15 20.05 Ю 3 200 м туман ?/? +3.2 +3.2 100 -1 -1 1013.5 1009.8
18 20.05 Ю 4 200 м туман ?/? +2.8 +2.8 100 -2 -2 1014.2 1010.4
21 20.05 Ю 4 500 м туман ?/? +4.2 +4.2 100 -1 -1 1015.4 1011.7 +2.8
00 21.05 Ю 4 20 км {туман} 9/9 600 м
[Sc]
+8.7 +5.2 79 +6 +7 1015.7 1012.0
03 21.05 Ю 5 50 км 9/3 300 м
[St Ac trans Ci fib]
+10.6 +6.4 75 +8 +11 1016.3 1012.6
06 21.05 Ю 4 20 км 9/9 300 м
[St]
+8.0 +5.9 87 +5 +5 1017.5 1013.8
09 21.05 Ю 3 20 км 10/10 300 м
[St]
+7.6 +6.4 92 +5 +5 1019.8 1016.1 +10.6
12 21.05 ЮВ 6 20 км 10/10 300 м
[St]
+8.1 +3.1 71 +4 +4 1021.2 1017.5

 

Местоположение метеостанции Большерецк (Камчатский край, Россия): широта 52.83 долгота 156.30 высота над уровнем моря 30 м.

В архиве по умолчанию представлена погода в Большерецке за последнюю неделю. Архивные данные за месяц целиком и за предыдущие месяцы, начиная с января 2011 года, Вы можете получить, выбрав интересующий диапазон дат из раскрывающегося списка и нажав кнопку "Ввод!".


*Определитесь, кто Вы:
робот инопланетянин человек

Внимание! Время в таблицах - всемирное. Для получения местного времени необходимо прибавить поправку, которая равна 12 ч.

Смотрите также архив погоды в соседних городах и на ближайших метеорологических станциях:

Погода в Начиках (Камчатский край, Россия) (99 км)
Погода в Сосновке (Камчатский край, Россия) (137 км)
Погода в Петропавловск-Камч. 2 (Камчатский край, Россия) (150 км)
Погода в Озерной (Камчатский край, Россия) (150 км)
Погода в Петропавловск-Камчатском (Камчатский край, Россия) (155 км)
Погода в Водопадной (Камчатский край, Россия) (161 км)
Погода в Петропавловском Маяке (Камчатский край, Россия) (161 км)
Погода в Соболево (Камчатский край, Россия) (166 км)
Погода в Пущино (Камчатский край, Россия) (188 км)
Погода на Мысе Лопатка (Камчатский край, Россия) (219 км)

Пояснения к столбцам:

Ветер - указаны скорость ветра в м/с - средняя за 10 мин, порывы в срок и между сроками (в фигурных скобках) и направление, откуда дует ветер: С - северный, СВ - северо-восточный, В - восточный, ЮВ - юго-восточный, Ю - южный, ЮЗ - юго-западный, З - западный, СЗ - северо-западный.
Видимость - горизонтальная дальность видимости в метрах или километрах. При видимости от 1 до 10 км при отсутствии осадков обычно наблюдается дымка, при ухудшении видимости до 1 км и менее - туман. В сухую погоду видимость может ухудшаться дымом, пылью или мглою.
Явления - указаны атмосферные явления, наблюдавшиеся в срок или в последний час перед сроком; фигурными скобками обозначены явления, наблюдавшиеся между сроками (за 1-3 часа до срока); квадратными скобками обозначены град или гололедные отложения с указанием их диаметра в мм.
Облачность - указаны через наклонную черту общая и нижняя облачность в баллах и высота нижней границы облаков в метрах; квадратными скобками обозначены формы облаков: Ci - перистые, Cs - перисто-слоистые, Cc - перисто-кучевые, Ac - высококучевые, As - высокослоистые, Sc - слоисто-кучевые, Ns - слоисто-дождевые, Cu - кучевые, Cb - кучево-дождевые. Подробнее классификацию облаков см. в Атласе облаков (PDF).
T - Температура воздуха - температура, измеренная на высоте 2 м над землей.
Td - Температура точки росы - температура, при понижении до которой содержащийся в воздухе водяной пар достигнет насыщения.
f - Относительная влажность воздуха - влажноcть воздуха, измеренная на высоте 2 м над землей.
Te - Эффективная температура - температура, которую ощущает одетый по сезону человек в тени. Характеристика душности погоды. При расчете учитывается влияние влажности воздуха и скорости ветра на теплоощущения человека.
Tes - Эффективная температура на солнце - температура, которую ощущает человек, с поправкой на солнечный нагрев. Характеристика знойности погоды. Зависит от высоты солнца над горизонтом, облачности и скорости ветра. Ночью, в пасмурную погоду, а также при ветре 12 м/с и более поправка равна нулю.
P - Атмосферное давление - приведенное к уровню моря атмосферное давление.
Po - Атмосферное давление - измеренное на уровне метеостанции атмосферное давление.
Tmin - Минимальная температура - минимум температуры воздуха на высоте 2 м над землей.
Tmax - Максимальная температура - максимум температуры воздуха на высоте 2 м над землей.
R - Количество осадков - Количество выпавших осадков за период времени, мм. При наведении курсора мыши на число - период времени, за который выпало указанное количество осадков.
R24 - Количество осадков - Количество выпавших осадков за 24 часа, мм.
S - Снежный покров - Высота снежного покрова, см. При наведении курсора мыши на число - состояние снежного покрова и степень покрытия местности в баллах.